This demonstration page uses our WeatherBlox Daily Observations layout. Learn more.

41.55636, -103.73856

Hourly Observations for July 18, 2016

Temp ( °F °C ) Dew Point ( °F °C ) Humidity (%) Winds ( mph kmh ) Pressure ( in mb ) Visibility ( mi km ) Precip ( " mm )
12:53 am 00:53 Mostly Cloudy with Light Rain 66 18.9 61 16.1 84 84 ESE 7 11 30.06 1018 10 16.0934 0 0.0254
1:44 am 01:44 Mostly Cloudy 64 18 63 17 94 94 E 7 11 30 1016 10 16.0934 0 0
1:53 am 01:53 Mostly Cloudy 65 18.3 61 16.1 87 87 ENE 8 13 30.04 1017 10 16.0934 0 0.0254
2:19 am 02:19 Partly Cloudy 66 18.9 61 16.1 84 84 NE 8 13 30 1016 10 16.0934 0 0
2:53 am 02:53 Clear 64 17.8 61 16.1 90 90 ENE 7 11 30.03 1017 10 16.0934 0 0
3:53 am 03:53 Clear 62 16.7 60 15.6 93 93 Calm 30.03 1017 10 16.0934 0 0
4:34 am 04:34 Mostly Cloudy 63 17 59 15 88 88 Calm 30.03 1017 10 16.0934 0 0
4:53 am 04:53 Cloudy 63 17.2 60 15.6 90 90 undefined N/A 30.06 1018 10 16.0934 0 0
5:53 am 05:53 Cloudy with Mist and Fog 65 18.3 62 16.7 90 90 E 8 13 30.07 1018 6 9.65604 0 0
6:53 am 06:53 Mostly Cloudy with Mist and Fog 67 19.4 65 18.3 93 93 E 10 17 30.06 1018 4 6.43736 0 0
7:08 am 07:08 Partly Cloudy with Mist and Fog 70 21 66 19 88 88 E 10 17 29.97 1015 4 6.43736 0 0
7:53 am 07:53 Sunny with Mist and Fog 71 21.7 67 19.4 87 87 ESE 14 22 30.05 1018 6 9.65604 0 0
8:53 am 08:53 Sunny 75 23.9 66 18.9 74 74 ESE 17 28 30.06 1018 9 14.48406 0 0
9:53 am 09:53 Mostly Sunny 79 26.1 66 18.9 65 65 SE 16 26 30.04 1017 10 16.0934 0 0
10:53 am 10:53 Sunny 83 28.3 65 18.3 55 55 SE 16 26 30.03 1017 10 16.0934 0 0
11:53 am 11:53 Sunny 88 31.1 63 17.2 43 43 SE 17 28 30 1016 10 16.0934 0 0
12:53 pm 12:53 Sunny 92 33.3 62 16.7 37 37 SSE 16 26 29.97 1015 10 16.0934 0 0
1:53 pm 13:53 Sunny 94 34.4 61 16.1 33 33 SSE 18 30 29.95 1014 10 16.0934 0 0
2:53 pm 14:53 Sunny 89 31.7 61 16.1 39 39 SSE 15 24 29.97 1015 10 16.0934 0 0
3:38 pm 15:38 Sunny with Nearby Thunderstorms 86 30 64 18 49 49 ENE 6 9 29.8 1009 10 16.0934 0 0
3:53 pm 15:53 Mostly Cloudy with Thunderstorms 84 28.9 66 18.9 55 55 ENE 9 15 29.99 1016 10 16.0934 0 0
4:17 pm 16:17 Cloudy with Thunderstorms 67 19.4 60 15.6 79 79 WNW 36 57 29.94 1014 1.75 2.816345 0 0.0254
4:31 pm 16:31 Windy with Storms Likely 65 18.3 61 16.1 87 87 N 32 52 29.97 1015 4 6.43736 0.1 2.54
4:53 pm 16:53 Partly Cloudy with Thunderstorms 72 22 N/A N/A NNE 20 31 30.03 1017 10 16.0934 0.13 3.302
5:05 pm 17:05 Partly Cloudy with Nearby Thunderstorms 70 21 N/A N/A NE 18 30 29.94 1014 10 16.0934 0 0
5:20 pm 17:20 Sunny 73 23 N/A N/A NE 17 28 29.91 1013 10 16.0934 0 0
5:53 pm 17:53 Sunny 75 24 N/A N/A ENE 10 17 30 1016 10 16.0934 0 0
6:53 pm 18:53 Sunny 75 23.9 62 16.7 64 64 SSE 13 20 30.02 1017 10 16.0934 0 0
7:53 pm 19:53 Sunny 75 23.9 60 15.6 60 60 S 20 31 30.04 1017 10 16.0934 0 0
8:53 pm 20:53 Clear 70 21.1 61 16.1 73 73 ESE 10 17 30 1016 10 16.0934 0 0
9:53 pm 21:53 Clear 67 19.4 60 15.6 79 79 SE 8 13 30.01 1016 10 16.0934 0 0
10:53 pm 22:53 Partly Cloudy 68 20 61 16.1 78 78 E 8 13 30.05 1018 10 16.0934 0 0
11:53 pm 23:53 Clear 66 18.9 61 16.1 84 84 ESE 7 11 30.03 1017 10 16.0934 0 0

Powered by AerisWeather